Retour au catalogue

STARLINK-31985

ActifCommunicationsVLEO
NORAD 60036·PAYLOAD·🇺🇸 United States

Lancé Jun 8, 2024 depuis Cape Canaveral Space Force Station

Loading…

Prochains Passages (prochaines 24 heures)

TLE

FraisSource: CelesTrak SupGP

Époque: Sep 15, 2026, 02:43 UTC

1 60036C 24111W   26258.11368056 -.00005985  00000+0 -17682-3 0  2580
2 60036  53.1572 274.7897 0001252  94.3273  97.0851 15.34396887    17

Suivez STARLINK-31985 en temps réel avec AllMySat

Download on the App Store